User: anonymous   Login
Location: Arbon
(43.0005°N, 0.7472°E)
Time: 06:55:15
(UTC+00:00)
Language:

Cosmos 1626 - Orbit

View from above orbital plane
View from above orbital plane
View from above satellite
View from above satellite

Ground track
Ground track

The orbit data is extracted from the following two-line orbital elements,

1 15494U 85009A   20296.03973976  .00001198  00000-0  47609-4 0  9997
2 15494  82.4763 104.3035 0003813  88.3532 271.8141 15.24322699954954
Epoch (UTC): 22 October 2020 00:57:13
Eccentricity: 0.0003813
inclination: 82.4763°
perigee height: 490 km
apogee height: 495 km
right ascension of ascending node: 104.3035°
argument of perigee: 88.3532°
revolutions per day: 15.24322699
mean anomaly at epoch: 271.8141°
orbit number at epoch: 95495

The dashed part of the orbit path shows where the satellite is in the earth's shadow,  

DLR